OBJECT E, 61231

Orbit data source: Space-Track

You're viewing an Uncataloged Satellite

Recently launched and/or uncataloged satellites may have evolving metadata. Metadata may include but not limited to: Owner, Maufacturer, Bus, Motor, and Mission.

OBJECT E, 61231 is a Chinese satellite in SSO that was launched on Tue, 24 Sep 2024 UTC via a JIELONG-3 launch vehicle from the Yellow Sea Launch Area, China (YSLA). Unknown objects in Earth's orbit typically refer to objects detected orbiting the Earth but have not yet been identified or cataloged. These objects could be anything from previously untracked satellites, spent rocket stages, debris from satellite collisions, or even natural meteoroids temporarily captured by Earth's gravity.

Loading next visibility...
Identifier
61231, 2024-173E
Orbit
SSO
Country
Flag of CNCN / PRC
Related business
None
Manufacturer
Guoxing
Mission
Operational Commercial Imaging
Bus & Motor
XSD, Unknown motor
Mass
~25 kg wet, ~25 kg dry
Launch date (UTC)
2024-09-24 (11 months ago)
Launch vehicle
JIELONG-3
Launch site
Yellow Sea Launch Area, China (YSLA)
Object type
Unknown
Shape & HBR
Box + 3 Pan, 0.1 m
Radar Cross Section
0.135 m², Large (>1 m²)

Expand to show TLE details & history
Last TLE update: 2 days ago

TLE from 2 days ago
0 OBJECT E
1 61231U 24173E   25239.98570557  .00002723  00000-0  13269-3 0  9995
2 61231  97.4119 312.6673 0001620  89.4091 270.7329 15.19177899 51243
Epoch: 2025-08-27T23:39Z
TLE epoch observation values (Epoch: 2025-08-27T23:39:24.961Z)
Latitude
-0.00004°
Longitude
-18.6419°
Altitude
511.399 km
Speed
7.608 km/s
True Right ascension
20h 50m 40s
True Declination
0° 00' 00"
Sunlit
Object was in full shadow at epoch
Visualization orbit readout
Latitude
Unknown
Longitude
Unknown
Altitude
Unknown
Speed
Unknown
Apparent Right ascension
Unknown
Apparent Declination
Unknown
Sunlit
N/A
Visualization observer readout
Local Sidereal Time
02:56:22
Azimuth
Unknown
Elevation
Unknown
Doppler factor
Unknown
Orbital elements
Apogee altitude
506.406 km
Perigee altitude
504.176 km
Semi-major axis
6,883.428 km
Eccentricity
0.00016
Inclination
97.4119°
RAAN
312.6673°
Arg. of periapsis
89.4091°
True anomaly
270.71434°
Mean anomaly
270.7329°
Eccentric anomaly
270.72362°
Mean motion
3.80046 °/min
Orbital period
94.73 mins
BSTAR
0.00013269
Loading maneuver chart data...
Computing Atmospheric mass density...
Loading historical data...
Loading historical data...
Loading historical data...
Loading historical data...
Loading historical data...
Loading historical data...
Loading historical data...

Documentation

Showing up to 5 results
|